Location: Sungai Bunut
(2.6333°N, 113.7333°E)
Time: 10:30:08
(UTC+00:00)

A-11 Canister half - Pass Details

Date: 09 December 2023
Orbit: 1526 x 1682 km, 47.3° (Epoch: 04 March)

Event Time Altitude Azimuth Distance (km) Brightness Sun altitude
Exits shadow 19:28:59 62° 180° (S) 1,718 9.1 -39.4°
Drops below altitude 10° 19:36:44 10° 148° (SSE) 3,704 11.6 -37.7°
Sets 19:39:46 0° 146° (SE) 4,679 12.3 -37.0°
